SB KEPS @ AMSAT $ORB14002.N 2Line Orbital Elements 14002.AMSAT
HR AMSAT ORBITAL ELEMENTS FOR AMATEUR SATELLITES IN NASA FORMAT FROM WA5QGD FORT WORTH,TX January 2, 2014 BID: ORB14002.N
DECODE 2-LINE ELSETS WITH THE FOLLOWING KEY: 1 AAAAAU 00 0 0 BBBBB.BBBBBBBB .CCCCCCCC 00000-0 00000-0 0 DDDZ 2 AAAAA EEE.EEEE FFF.FFFF GGGGGGG HHH.HHHH III.IIII JJ.JJJJJJJJKKKKKZ KEY: A-CATALOGNUM B-EPOCHTIME C-DECAY D-ELSETNUM E-INCLINATION F-RAAN G-ECCENTRICITY H-ARGPERIGEE I-MNANOM J-MNMOTION K-ORBITNUM Z-CHECKSUM
TO ALL RADIO AMATEURS BT
AO-07 1 07530U 74089B 14002.22356639 -.00000019 00000-0 15399-3 0 8626 2 07530 101.4541 349.6494 0011608 259.0869 170.4891 12.53600963790727 FO-29 1 24278U 96046B 14002.73746885 -.00000016 00000-0 20492-4 0 2782 2 24278 098.5283 039.3350 0350413 007.0593 107.3231 13.53012796858299 SO-33 1 25509U 98061B 14002.19354684 .00000237 00000-0 36105-4 0 6619 2 25509 031.4328 020.7206 0350496 100.4402 330.3578 14.29275698793381 RS-22 1 27939U 03042A 14002.60588116 .00000968 00000-0 18984-3 0 921 2 27939 097.7971 185.1125 0012350 276.1929 083.7873 14.64781159548483 VO-52 1 28650U 05017B 14002.81515461 .00003524 00000-0 42128-3 0 6229 2 28650 097.5618 016.1545 0024982 346.7144 064.0440 14.84565905468693 HO-68 1 36122U 09072B 14002.71985676 -.00000044 00000-0 00000 0 0 2012 2 36122 100.2778 059.4720 0007252 255.2917 104.7396 13.16310450194665 AO-73 1 39445U 13066AF 14001.86711480 .00001649 00000-0 23149-3 0 265 2 39445 097.7951 078.1426 0064680 062.9633 297.8155 14.77310546 4476 UO-11 1 14781U 84021B 14001.94124678 .00000701 00000-0 96656-4 0 3788 2 14781 097.8766 065.1440 0008579 011.9937 348.1478 14.81214152603356 AO-16 1 20439U 90005D 14002.20423019 .00000211 00000-0 94047-4 0 9217 2 20439 098.4931 302.8070 0009728 291.6361 201.2911 14.32259649250725 LO-19 1 20442U 90005G 14002.04823432 .00000199 00000-0 89326-4 0 8595 2 20442 098.4634 303.8162 0010671 280.5285 079.4696 14.32466113250892 AO-27 1 22825U 93061C 14001.83419395 .00000150 00000-0 75932-4 0 5639 2 22825 098.6438 308.9870 0009402 069.9523 343.3350 14.29635753 57012 IO-26 1 22826U 93061D 14001.86638576 .00000155 00000-0 77427-4 0 3204 2 22826 098.6382 309.2671 0009862 063.1355 002.6427 14.29927408 57159 GO-32 1 25397U 98043D 14001.84679374 .00000081 00000-0 54044-4 0 2436 2 25397 098.4459 326.2583 0002402 089.3230 330.0845 14.23390091804208 NO-44 1 26931U 01043C 14001.80373287 .00000184 00000-0 10305-3 0 5039 2 26931 067.0525 107.4729 0006050 264.9956 095.0454 14.30015047639819 SO-50 1 27607U 02058C 14002.50554491 .00001025 00000-0 17762-3 0 2624 2 27607 064.5577 017.2140 0032433 076.8037 004.2695 14.73308459593073 CO-55 1 27844U 03031E 14002.65309760 .00000338 00000-0 17487-3 0 8235 2 27844 098.7005 013.8196 0010107 039.6160 076.8411 14.21353440545062 CO-57 1 27848U 03031J 14002.62461369 .00000264 00000-0 14180-3 0 7649 2 27848 098.7096 013.4118 0010159 045.5152 081.1020 14.21061383544987 AO-51 1 28375U 04025K 14002.45512578 .00000255 00000-0 88516-4 0 7385 2 28375 098.2309 315.2116 0084406 132.9803 005.5007 14.41240445500039 CP3 1 31129U 07012N 14001.88131137 .00000733 00000-0 17252-3 0 6387 2 31129 097.9169 348.5316 0099938 168.2021 251.0845 14.54110844355861 CO-65 1 32785U 08021C 14002.12704446 .00002032 00000-0 24680-3 0 8316 2 32785 097.7245 058.7488 0014168 020.8602 031.5152 14.84517577307386 PRISM 1 33493U 09002B 14002.84980338 .00004065 00000-0 45412-3 0 5140 2 33493 098.2339 171.8251 0016804 263.9361 095.9953 14.87466902267587 SOHLA-1 1 33496U 09002E 14002.86863707 .00000640 00000-0 11376-3 0 2396 2 33496 098.1518 123.6299 0007276 056.9278 057.6607 14.70523892265218 TISAT-1 1 36799U 10035E 14002.80241734 .00002554 00000-0 31028-3 0 7787 2 36799 098.0254 093.6953 0015243 136.1931 224.0506 14.84334599188172 STUDSAT 1 36801U 10035G 14001.54042801 .00012334 00000-0 12295-2 0 7427 2 36801 098.0390 097.7186 0011319 119.5977 006.6111 14.91678149188249 ALMASAT-1 1 38078U 12006B 14002.34298432 .00035964 00000-0 79868-3 0 8916 2 38078 069.4774 095.1538 0652893 250.1811 102.8108 14.36254207 97715 XATCOBEO 1 38082U 12006F 14002.86712609 .00142417 69169-5 19370-2 0 8194 2 38082 069.4671 039.1590 0439796 219.9649 197.3921 14.91095662 99284 CUBEBUG-1 1 39153U 13018D 14002.82866876 .00001435 00000-0 21071-3 0 7267 2 39153 098.0574 083.4444 0018525 158.7555 201.4426 14.76978132 37142 ESTCUBE-1 1 39161U 13021C 14002.71851308 .00001132 00000-0 19958-3 0 6996 2 39161 098.1135 084.8036 0009748 193.9767 166.1169 14.69417097 35295 NOAA-10 1 16969U 86073A 14002.52620529 .00000110 00000-0 61833-4 0 6245 2 16969 098.5285 030.8363 0012344 026.7957 129.1164 14.27700985420387 NOAA-11 1 19531U 88089A 14002.34523408 .00000100 00000-0 73929-4 0 6484 2 19531 098.6960 085.5498 0011888 056.9923 303.2392 14.15048793304289 NOAA-12 1 21263U 91032A 14002.52880620 .00000080 00000-0 52272-4 0 1124 2 21263 098.6806 031.1565 0013599 004.7915 150.6782 14.25614628176953 MET-3/5 1 21655U 91056A 14002.20846551 -.00000294 00000-0 -79493-3 0 8708 2 21655 082.5576 113.6973 0012767 356.7444 003.3594 13.17054601 76139 MET-2/21 1 22782U 93055A 14002.84034947 .00000105 00000-0 81719-4 0 9399 2 22782 082.5513 304.4956 0022414 012.6841 038.8101 13.83721897 27259 OKEAN-4 1 23317U 94066A 14002.16605414 .00001340 00000-0 15412-3 0 4185 2 23317 082.5372 223.5035 0019509 289.8403 220.3050 14.84944366 38465 NOAA-14 1 23455U 94089A 14002.48801646 .00000046 00000-0 46948-4 0 5893 2 23455 098.7899 088.7973 0010293 147.3670 277.4735 14.13941046980539 NOAA-15 1 25338U 98030A 14002.53037968 .00000210 00000-0 10795-3 0 213 2 25338 098.7418 356.8265 0009609 268.2036 200.8593 14.25320733813241 RESURS 1 25394U 98043A 14002.10535251 .00000068 00000-0 47357-4 0 5558 2 25394 098.3907 333.6812 0002049 061.3500 069.0902 14.24358085804678 FENGYUN1 1 25730U 99025A 14002.48865880 .00001519 00000-0 86438-3 0 489 2 25730 098.8991 324.8174 0025768 212.1622 286.2553 14.11188687754143 OKEAN-0 1 25860U 99039A 14001.97913785 .00000899 00000-0 14157-3 0 1377 2 25860 098.0204 327.1047 0001128 128.5914 275.4682 14.74883868777655 NOAA-16 1 26536U 00055A 14002.25208448 .00000096 00000-0 76070-4 0 5076 2 26536 099.0150 061.7121 0009592 294.9478 106.4421 14.12968199684684 NOAA-17 1 27453U 02032A 14002.47515572 .00000163 00000-0 87546-4 0 4136 2 27453 098.3115 010.9589 0010552 303.0209 181.4442 14.24668684599097 NOAA-18 1 28654U 05018A 14002.51399000 .00000238 00000-0 15542-3 0 9019 2 28654 099.1286 338.8783 0014409 013.1554 133.8752 14.11920875444187 NOAA-19 1 33591U 09005A 14002.50298112 .00000162 00000-0 11342-3 0 736 2 33591 098.9275 308.2077 0013394 224.3224 263.0031 14.11614868252610 HUBBLE 1 20580U 90037B 14002.54543411 .00003278 00000-0 21678-3 0 4080 2 20580 028.4715 045.2473 0003010 322.2027 162.3747 15.04448356 99740 ISS 1 25544U 98067A 14002.91532806 .00008631 00000-0 15839-3 0 3813 2 25544 051.6486 198.7442 0004937 345.7231 167.8980 15.50115526865688 CO-58 1 28895U 05043F 14002.54960665 .00001087 00000-0 22789-3 0 6615 2 28895 097.8472 212.9161 0017920 169.4596 190.6985 14.61466623436057 FALCON 1 30776U 07006E 14002.20681794 .00010513 00000-0 58430-3 0 7711 2 30776 035.4310 058.9110 0002156 220.2893 192.9987 15.13000471375557 MAST 1 31126U 07012K 14002.20521100 .00000644 00000-0 15143-3 0 9385 2 31126 097.8982 351.9614 0093635 151.4490 270.1211 14.54880839356252 CAPE1 1 31130U 07012P 14002.52311828 .00000810 00000-0 19037-3 0 9436 2 31130 097.9181 348.7376 0100456 167.3424 193.0332 14.53907252355738 COMPASS 1 32787U 08021E 14002.12250051 .00003905 00000-0 44600-3 0 8208 2 32787 097.7260 060.3496 0014414 014.9733 345.1907 14.86555084307509 AAUSAT2 1 32788U 08021F 14002.13118579 .00004772 00000-0 53618-3 0 8053 2 32788 097.7270 061.1622 0013951 014.0164 346.1436 14.87120115307552 DO-64 1 32789U 08021G 14002.84071409 .00011405 00000-0 11670-2 0 8414 2 32789 097.7438 066.9375 0012768 001.3050 058.7569 14.90625326307848 CO-66 1 32791U 08021J 14002.70645957 .00003597 00000-0 42189-3 0 8005 2 32791 097.7258 059.9917 0014980 015.5862 099.8631 14.85495257307489 RS-30 1 32953U 08025A 14002.83018079 .00000010 00000-0 00000 0 0 5233 2 32953 082.5036 304.0345 0018718 154.0050 206.1973 12.43041350254717 METEOR-M 1 35865U 09049A 14002.72077832 -.00000004 00000-0 17699-4 0 1311 2 35865 098.5758 054.9578 0001938 200.5924 159.5169 14.21903558222822 RS-38 1 35869U 09049E 14002.71854791 .00000044 00000-0 39062-4 0 827 2 35869 098.5688 054.8079 0004164 207.3515 152.7438 14.22168960222856 JUGNU 1 37839U 11058B 14002.78267926 .00000447 00000-0 97228-4 0 5341 2 37839 019.9609 177.3408 0019043 320.7828 168.0871 14.12228079115142 SRMSAT 1 37841U 11058D 14001.91519750 .00000389 00000-0 69292-4 0 5337 2 37841 019.9705 198.5958 0011894 258.7534 243.0555 14.10284095114866 RAX-2 1 37853U 11061D 14001.91072088 .00004959 00000-0 36275-3 0 6862 2 37853 101.7069 312.8551 0226820 176.6075 226.9867 14.86150422117933 AUBIESAT 1 37854U 11061E 14002.83786451 .00008583 00000-0 60490-3 0 6718 2 37854 101.7118 315.5505 0225788 171.8898 248.5898 14.87129249118108 HRBE 1 37855U 11061F 14002.82695668 .00007301 00000-0 52012-3 0 6805 2 37855 101.7119 315.1191 0227326 172.7327 243.1331 14.86650317118088 RS-39 1 38051U 11062C 14002.81312370 .00031306 00000-0 74936-3 0 1233 2 38051 051.6349 322.2558 0005800 269.7516 174.1644 15.41153716108463 E-STAR 1 38079U 12006C 14002.51564271 .00094962 00000-0 15119-2 0 6989 2 38079 069.4704 056.1857 0513511 229.1259 126.4762 14.72355901 98795 GOLIAT 1 38085U 12006J 14002.88037575 .00099075 48190-5 16150-2 0 6835 2 38085 069.4722 059.4341 0527983 230.7897 124.5246 14.69067426 98738 HORYU-2 1 38340U 12025D 14002.30898379 .00001921 00000-0 31680-3 0 7174 2 38340 098.2412 317.0230 0012754 347.3202 012.7721 14.71620550 87390 RS-40 1 38736U 12041D 14002.06382617 .00000010 00000-0 00000 0 0 4653 2 38736 082.4790 031.1247 0020232 251.3772 108.5117 12.42875217 64959 PROITERES 1 38756U 12047B 14002.77862929 .00000780 00000-0 12508-3 0 4483 2 38756 098.2383 088.3542 0012171 185.0973 175.0102 14.74553442 70809 BEESAT-3 1 39134U 13015E 14002.80612593 .00009817 00000-0 73593-3 0 4654 2 39134 064.8816 300.8699 0012426 333.9939 026.1042 15.02399926 38792 BEESAT-2 1 39136U 13015G 14001.88947105 .00005030 00000-0 39309-3 0 4507 2 39136 064.8807 303.8897 0010368 330.0979 029.9549 15.02126289 38650 CAPE-1 1 39380U 13064A 14002.36934317 .00004450 00000-0 20334-3 0 540 2 39380 040.5189 358.2202 0005054 254.3741 105.6508 15.21276280 6605 TRLBLAZER 1 39382U 13064C 14002.33296890 .00031068 00000-0 12638-2 0 582 2 39382 040.5052 357.8879 0003104 224.0783 136.0215 15.23856217 6592 TECHEDST3 1 39415U 98067DD 14002.52309271 .00622735 00000-0 38424-2 0 807 2 39415 051.6401 197.1999 0011872 240.7640 119.2639 15.76316036 6744 ZACUBE-1 1 39417U 13066B 14002.74810386 .00001346 00000-0 19047-3 0 1310 2 39417 097.7961 078.9947 0064748 060.0696 300.6925 14.77279009 6260 TRITON-1 1 39427U 13066M 14002.77036765 .00001024 00000-0 18134-3 0 357 2 39427 097.7841 078.1649 0120807 056.7814 304.4905 14.64698602 6172 DELFIN3XT 1 39428U 13066N 14002.77619499 .00001660 00000-0 29956-3 0 382 2 39428 097.7854 078.0036 0132285 056.7295 304.6506 14.62184480 6151 GOMX-1 1 39430U 13066Q 14002.74439963 .00000901 00000-0 18097-3 0 1009 2 39430 097.7822 077.5813 0159411 057.1213 304.5213 14.56155602 6130 $50SAT 1 39436U 13066W 14002.61804479 .00009350 00000-0 11014-2 0 411 2 39436 097.7971 079.3253 0031204 075.0719 285.3929 14.84651509 6260 PUCPSAT-1 1 39442U 13066AC 14002.66775785 .00002299 00000-0 27350-3 0 292 2 39442 097.7997 079.4224 0037106 068.9214 291.5981 14.84858505 5050 /EX
participants (1)
-
Ray Hoad